Milford, UT

7:55 AM MDT on August 27, 2016 (GMT -0600)
Milford Municipal

Weather History for KMLF - March, 2013

Change the Weather History Date:

Thursday, March 7, 2013

  Actual Average Record
Temperature  
Mean Temperature 42 °F -  
Max Temperature 55 °F 50 °F 63 °F (2007)
Min Temperature 28 °F 23 °F 17 °F (2008)
Degree Days  
Heating Degree Days 24    
Moisture  
Dew Point 23 °F    
Average Humidity 46    
Maximum Humidity 79    
Minimum Humidity 13    
Precipitation  
Precipitation 0.00 in - - ()
Sea Level Pressure  
Sea Level Pressure 29.84 in    
Wind  
Wind Speed 8 mph (WSW)    
Max Wind Speed 17 mph    
Max Gust Speed 23 mph    
Visibility 8 miles    
Events      
Averages and records for this station are not official NWS values.
T = Trace of Precipitation, MM = Missing Value Source: NWS Daily Summary

Daily Weather History Graph

Daily Weather History Graph

Search for Another Location

Airport or City:

Trip Planner

Search our weather history database for the weather conditions in past years. The results will help you decide how hot, cold, wet, or windy it might be!

Date:

Astronomy

Mar. 07, 2013 Rise Set
Actual Time 6:54 AM MST 6:31 PM MST
Civil Twilight 6:28 AM MST 6:58 PM MST
Nautical Twilight 5:57 AM MST 7:28 PM MST
Astronomical Twilight 5:27 AM MST 7:59 PM MST
Moon 3:54 AM MST (3/7) 2:26 PM MST (3/7)
Length of Visible Light 12h 29m
Length of Day
11h 36m
Waning Crescent, 19% of the Moon is Illuminated
Mar 7
Waning Crescent
Mar 11
New
Mar 19
First Quarter
Mar 27
Full
Apr 2
Last Quarter

Hourly Weather History & Observations

Time (MST) Temp. Windchill Dew Point Humidity Pressure Visibility Wind Dir Wind Speed Gust Speed Precip Events Conditions
12:52 AM 39.0 °F 33.4 °F 21.0 °F 49% 29.80 in 10.0 mi SSW 8.1 mph - N/A   Clear
1:52 AM 35.1 °F 27.9 °F 21.9 °F 59% 29.83 in 10.0 mi SW 9.2 mph - N/A   Clear
2:52 AM 30.9 °F - 21.0 °F 67% 29.84 in 10.0 mi Calm Calm - N/A   Clear
3:52 AM 30.0 °F 23.2 °F 21.0 °F 69% 29.82 in 10.0 mi NNW 6.9 mph - N/A   Clear
4:52 AM 33.1 °F 25.5 °F 23.0 °F 66% 29.84 in 10.0 mi WNW 9.2 mph - N/A   Clear
5:52 AM 28.0 °F 20.8 °F 21.0 °F 75% 29.88 in 10.0 mi NNE 6.9 mph - N/A   Clear
6:52 AM 32.0 °F 22.5 °F 26.1 °F 79% 29.89 in 10.0 mi NNW 12.7 mph - N/A   Clear
7:52 AM 33.1 °F 27.7 °F 26.1 °F 75% 29.91 in 10.0 mi NNE 5.8 mph - N/A   Clear
8:52 AM 39.0 °F 31.4 °F 28.0 °F 65% 29.91 in 10.0 mi North 12.7 mph - N/A   Clear
9:52 AM 42.1 °F 36.6 °F 28.0 °F 58% 29.90 in 10.0 mi NNE 9.2 mph - N/A   Clear
10:44 AM 44.6 °F 40.2 °F 28.4 °F 53% 29.93 in 1.5 mi North 8.1 mph - N/A   Haze
10:52 AM 45.0 °F 42.6 °F 28.0 °F 52% 29.88 in 1.5 mi North 4.6 mph - N/A   Haze
10:57 AM 46.4 °F 43.5 °F 28.4 °F 50% 29.92 in 10.0 mi NNW 5.8 mph - N/A   Clear
11:52 AM 50.0 °F - 26.1 °F 39% 29.84 in 10.0 mi Variable 5.8 mph - N/A   Clear
12:52 PM 53.1 °F - 23.0 °F 31% 29.81 in 10.0 mi Calm Calm - N/A   Clear
1:52 PM 55.9 °F - 19.9 °F 25% 29.79 in 10.0 mi SW 17.3 mph 20.7 mph N/A   Clear
2:52 PM 55.9 °F - 19.0 °F 24% 29.78 in 10.0 mi SW 15.0 mph 23.0 mph N/A   Clear
3:52 PM 55.0 °F - 18.0 °F 23% 29.79 in 10.0 mi SSW 9.2 mph - N/A   Clear
4:52 PM 55.0 °F - 18.0 °F 23% 29.78 in 10.0 mi SW 11.5 mph - N/A   Scattered Clouds
5:52 PM 52.0 °F - 19.0 °F 27% 29.81 in 10.0 mi SSW 12.7 mph - N/A   Overcast
6:25 PM 50.0 °F - 19.4 °F 30% 29.84 in 0.5 mi SSW 6.9 mph - N/A   Haze
6:44 PM 50.0 °F - 19.4 °F 30% 29.84 in 2.0 mi South 4.6 mph - N/A   Haze
6:49 PM 48.2 °F - 19.4 °F 32% 29.84 in 10.0 mi SSE 4.6 mph - N/A   Mostly Cloudy
6:52 PM 48.0 °F - 19.9 °F 33% 29.82 in 10.0 mi SSE 5.8 mph - N/A   Mostly Cloudy
7:52 PM 46.9 °F - 21.9 °F 37% 29.83 in 10.0 mi South 5.8 mph - N/A   Mostly Cloudy
8:52 PM 46.0 °F 42.5 °F 23.0 °F 40% 29.82 in 10.0 mi South 6.9 mph - N/A   Overcast
9:52 PM 44.1 °F - 24.1 °F 45% 29.83 in 10.0 mi Calm Calm - N/A   Overcast
10:48 PM 39.2 °F 35.0 °F 26.6 °F 61% 29.87 in 1.8 mi WSW 5.8 mph - N/A   Haze
10:52 PM 39.9 °F 35.1 °F 26.1 °F 58% 29.83 in 0.2 mi WSW 6.9 mph - N/A   Haze
11:02 PM 39.2 °F 35.0 °F 26.6 °F 61% 29.86 in 4.0 mi West 5.8 mph - N/A   Haze
11:52 PM 39.9 °F 36.7 °F 27.0 °F 60% 29.81 in 10.0 mi WSW 4.6 mph - N/A   Overcast